Time,TemperatureF,DewpointF,PressureIn,WindDirection,WindDirectionDegrees,WindSpeedMPH,WindSpeedGustMPH,Humidity,HourlyPrecipIn,Conditions,Clouds,dailyrainin,SoftwareType,DateUTC
2013-11-03 00:02:00,-999.0,-99.9,28.99,North,351,3.0,5.0,-999,-99.99,,,-99.99,,2013-11-03 04:02:00,
2013-11-03 00:13:00,44.0,38.0,28.99,North,351,3.0,5.0,79,0.00,,,0.08,,2013-11-03 04:13:00,
2013-11-03 00:23:00,44.0,38.0,28.99,North,353,2.0,6.0,78,0.00,,,0.08,,2013-11-03 04:23:00,
2013-11-03 00:44:00,44.0,38.0,28.99,NNW,337,3.0,7.0,78,0.00,,,0.08,,2013-11-03 04:44:00,
2013-11-03 00:52:00,44.0,37.0,28.99,NNW,339,3.0,5.0,77,0.00,,,0.08,,2013-11-03 04:52:00,
2013-11-03 01:13:00,44.0,37.0,28.99,North,356,2.0,5.0,77,0.00,,,0.08,,2013-11-03 05:13:00,
2013-11-03 01:23:00,44.0,37.0,29.00,NNW,348,3.0,7.0,77,0.00,,,0.08,,2013-11-03 05:23:00,
2013-11-03 01:43:00,44.0,37.0,28.99,NNW,334,3.0,5.0,77,0.00,,,0.08,,2013-11-03 05:43:00,
2013-11-03 01:53:00,44.0,37.0,29.00,NNW,337,3.0,3.0,76,0.00,,,0.08,,2013-11-03 05:53:00,
2013-11-03 01:12:00,44.0,37.0,29.00,NNW,348,2.0,5.0,76,0.00,,,0.08,,2013-11-03 06:12:00,
2013-11-03 01:23:00,43.0,36.0,29.02,NNW,348,2.0,4.0,76,0.00,,,0.08,,2013-11-03 06:23:00,
2013-11-03 01:43:00,43.0,36.0,28.99,NNW,334,2.0,4.0,77,0.00,,,0.08,,2013-11-03 06:43:00,
2013-11-03 01:53:00,43.0,37.0,29.02,NNW,334,2.0,5.0,79,0.00,,,0.08,,2013-11-03 06:53:00,
2013-11-03 02:11:00,43.0,37.0,29.02,NNW,347,3.0,7.0,79,0.00,,,0.08,,2013-11-03 07:11:00,
2013-11-03 02:22:00,43.0,37.0,29.02,NNW,330,3.0,6.0,78,0.00,,,0.08,,2013-11-03 07:22:00,
2013-11-03 02:42:00,43.0,37.0,29.02,NNW,335,4.0,7.0,78,0.00,,,0.08,,2013-11-03 07:42:00,
2013-11-03 02:52:00,43.0,37.0,29.02,North,11,2.0,6.0,78,0.00,,,0.08,,2013-11-03 07:52:00,
2013-11-03 03:21:00,41.0,35.0,29.05,NNE,22,1.0,4.0,79,0.00,,,0.08,,2013-11-03 08:21:00,
2013-11-03 03:42:00,40.0,34.0,29.05,NNE,22,0.0,3.0,80,0.00,,,0.08,,2013-11-03 08:42:00,
2013-11-03 03:52:00,40.0,34.0,29.05,North,0,0.0,3.0,80,0.00,,,0.08,,2013-11-03 08:52:00,
2013-11-03 04:12:00,40.0,35.0,29.05,North,0,0.0,3.0,83,0.00,,,0.08,,2013-11-03 09:12:00,
2013-11-03 04:22:00,40.0,35.0,29.08,NNW,337,0.0,1.0,83,0.00,,,0.08,,2013-11-03 09:22:00,
2013-11-03 04:53:00,39.0,35.0,29.07,North,0,0.0,0.0,84,0.00,,,0.08,,2013-11-03 09:53:00,
2013-11-03 05:23:00,39.0,35.0,29.07,NNE,22,0.0,0.0,86,0.00,,,0.08,,2013-11-03 10:23:00,
2013-11-03 05:42:00,40.0,36.0,29.10,NNE,22,0.0,0.0,86,0.00,,,0.08,,2013-11-03 10:42:00,
2013-11-03 05:53:00,39.0,35.0,29.10,NNE,22,0.0,0.0,85,0.00,,,0.08,,2013-11-03 10:53:00,
2013-11-03 06:22:00,38.0,34.0,29.13,NNE,22,0.0,0.0,85,0.00,,,0.08,,2013-11-03 11:22:00,
2013-11-03 06:43:00,38.0,34.0,29.13,NNE,22,0.0,0.0,86,0.00,,,0.08,,2013-11-03 11:43:00,
2013-11-03 06:52:00,37.0,34.0,29.13,NNE,22,0.0,0.0,87,0.00,,,0.08,,2013-11-03 11:52:00,
2013-11-03 07:22:00,36.0,32.0,29.13,NNE,22,0.0,0.0,86,0.00,,,0.08,,2013-11-03 12:22:00,
2013-11-03 07:42:00,36.0,33.0,29.16,NNE,22,0.0,0.0,87,0.00,,,0.08,,2013-11-03 12:42:00,
2013-11-03 07:52:00,36.0,33.0,29.19,NNE,22,0.0,0.0,89,0.00,,,0.08,,2013-11-03 12:52:00,
2013-11-03 08:12:00,36.0,33.0,29.19,NNE,22,0.0,0.0,89,0.00,,,0.08,,2013-11-03 13:12:00,
2013-11-03 08:22:00,37.0,35.0,29.19,North,0,0.0,0.0,91,0.00,,,0.08,,2013-11-03 13:22:00,
2013-11-03 08:42:00,38.0,35.0,29.19,North,0,0.0,0.0,90,0.00,,,0.08,,2013-11-03 13:42:00,
2013-11-03 08:52:00,40.0,38.0,29.21,NNE,22,0.0,0.0,92,0.00,,,0.08,,2013-11-03 13:52:00,
2013-11-03 09:12:00,40.0,37.0,29.21,NNE,22,0.0,0.0,90,0.00,,,0.08,,2013-11-03 14:12:00,
2013-11-03 09:22:00,41.0,37.0,29.21,East,85,3.0,6.0,86,0.00,,,0.08,,2013-11-03 14:22:00,
2013-11-03 09:42:00,42.0,34.0,29.21,East,82,4.0,7.0,73,0.00,,,0.08,,2013-11-03 14:42:00,
2013-11-03 09:52:00,44.0,34.0,29.24,NE,35,2.0,6.0,67,0.00,,,0.08,,2013-11-03 14:52:00,
2013-11-03 10:11:00,44.0,30.0,29.24,ENE,67,1.0,5.0,57,0.00,,,0.08,,2013-11-03 15:11:00,